Theta_e
320 319 319 318 316 315 316 315 314 315 316 315 314 314 315 316 318 317 318 319 319 320 319 334 335 335 331 331 329 325 321 322 329 337 335 334 334 336 340 351 348 349 351 349
320 320 319 318 318 315 315 315 315 316 317 315 315 315 316 315 316 317 318 318 319 319 320 326 334 334 333 332 330 327 323 321 339 341 339 335 336 334 335 348 345 348 351 349
320 320 320 317 316 316 315 315 316 316 318 320 319 317 318 318 318 319 319 319 319 319 319 321 331 333 333 332 331 329 324 322 325 343 342 340 340 334 330 343 349 349 342 345
320 319 319 316 315 315 315 316 317 317 317 317 319 317 318 319 318 318 318 319 319 319 319 319 323 332 333 332 331 331 327 323 325 338 336 341 341 335 342 344 347 344 346 343
319 320 320 315 315 315 316 317 316 317 316 319 317 316 316 319 322 322 324 325 323 319 320 320 323 328 332 329 330 329 326 323 321 321 322 322 325 333 329 344 342 341 341 338
320 319 317 316 316 316 316 316 316 315 314 316 317 317 316 317 320 325 326 324 325 324 325 325 327 329 329 328 330 328 326 324 322 322 332 335 333 330 328 337 342 342 340 340
320 319 317 317 316 316 315 314 314 316 316 317 317 318 317 324 326 327 326 324 325 325 325 325 328 332 330 330 329 328 327 327 331 332 332 333 336 329 325 335 336 338 335 336
321 320 317 318 316 315 315 314 314 317 319 319 320 319 318 326 326 326 325 325 327 326 327 327 328 329 330 330 330 333 333 334 334 334 334 338 338 335 335 334 332 333 334 334
320 319 319 318 317 316 316 316 315 316 323 322 321 327 326 325 324 323 325 327 328 330 329 328 327 326 331 329 329 329 331 332 332 333 331 334 336 335 332 331 331 330 329 327
323 325 321 318 316 316 316 315 316 315 323 323 322 326 330 325 323 322 324 326 327 328 328 329 329 329 328 329 329 326 326 330 328 327 328 327 325 326 326 324 325 325 325 318
324 323 325 323 322 316 315 315 316 319 323 321 324 332 327 330 329 324 325 325 325 325 325 324 324 324 325 325 324 322 320 320 319 318 316 316 316 316 315 315 315 314 314 315
323 323 324 323 322 322 317 317 320 323 327 328 324 327 324 325 324 324 326 323 323 323 323 322 321 320 320 319 318 317 316 316 316 315 315 315 315 314 313 312 311 310 309 309
322 324 325 325 323 322 317 318 320 324 325 328 328 327 325 325 323 323 325 325 322 320 320 319 318 317 317 316 316 315 315 314 313 313 313 313 312 311 310 310 310 310 311 311
322 323 325 324 325 322 319 319 322 322 325 327 328 328 327 324 326 324 324 326 321 320 319 318 317 317 316 315 314 314 313 312 312 312 312 311 311 311 311 311 311 311 311 310
322 326 325 326 326 325 322 319 325 325 324 325 326 327 325 322 323 323 323 323 320 319 318 317 316 315 315 314 313 313 312 311 311 310 309 310 310 311 311 311 310 309 309 308
323 326 322 326 324 325 326 324 326 326 325 325 322 326 322 322 322 323 323 319 318 317 316 315 314 314 313 312 312 310 310 309 309 308 309 309 310 310 310 308 308 307 306 304
322 326 323 324 324 324 327 326 326 325 326 324 328 325 323 323 320 319 320 319 315 314 312 312 311 310 310 310 309 309 309 309 307 308 308 308 308 308 307 306 306 306 304 304
325 324 320 324 326 329 324 323 325 325 325 325 325 322 319 316 315 314 313 312 311 310 309 309 309 308 308 308 308 308 308 307 305 306 306 306 306 306 305 305 305 304 304 305
320 325 325 325 324 324 324 323 323 322 323 322 320 317 315 314 313 312 311 310 309 308 307 306 306 306 306 306 306 306 305 303 303 303 304 304 304 303 304 304 303 304 305 305
320 320 322 323 324 326 323 322 321 319 321 317 317 317 316 316 313 309 308 308 307 306 305 304 304 303 303 303 302 301 300 300 301 301 302 302 302 302 303 303 304 305 305 305
317 320 323 323 322 323 321 321 320 321 321 315 313 313 312 311 309 307 306 305 304 303 302 301 301 300 299 298 298 298 298 298 299 300 301 301 302 302 302 304 304 305 305 306
318 321 323 321 321 323 320 319 320 316 312 312 309 308 306 306 305 304 303 302 301 299 298 297 296 296 296 296 296 297 296 297 298 299 300 301 302 301 303 304 305 305 307 309
323 322 322 321 321 316 315 315 313 310 308 308 306 305 305 303 302 301 299 298 297 296 295 294 294 294 293 294 294 295 295 297 298 299 300 301 301 302 304 304 305 307 309 309
320 318 319 318 315 313 311 310 308 307 306 305 305 303 302 301 300 298 296 295 294 293 292 292 291 291 291 292 293 293 295 296 298 299 300 300 301 302 304 305 305 307 309 309
319 317 316 315 312 310 309 307 306 305 305 304 303 302 301 299 297 296 295 293 292 291 291 290 290 291 291 292 292 293 293 295 296 298 299 301 302 302 304 304 304 307 308 308
316 315 315 314 312 310 309 307 306 305 304 303 302 300 299 297 296 295 293 293 292 291 292 292 291 291 291 292 292 292 293 293 294 297 299 300 302 302 303 303 306 307 307 307
Wind_Speed
30 12 15 18 16 13 15 16 13 18 15 11 15 9 10 16 22 19 26 24 29 24 34 31 33 32 28 21 14 10 11 9 17 23 36 49 35 22 29 24 27 24 21 22
11 23 18 16 19 18 19 19 18 11 18 12 10 10 10 11 11 26 29 31 31 32 26 28 35 34 32 29 22 14 10 8 10 16 6 35 34 23 18 26 26 23 22 27
24 14 20 20 19 21 20 19 16 10 8 4 5 4 5 7 12 21 27 36 35 31 31 26 29 38 37 35 30 23 14 11 9 9 7 15 12 16 17 31 28 19 21 24
22 19 22 24 22 20 19 20 20 13 6 4 3 6 8 7 12 8 19 28 33 32 33 31 23 36 41 31 27 29 24 18 12 16 12 10 15 15 19 16 14 21 18 17
23 22 26 23 24 21 17 15 16 10 6 2 8 1 7 5 5 3 7 17 11 26 29 28 28 31 34 30 33 34 27 26 17 13 15 12 12 14 13 8 9 12 14 17
26 21 20 23 21 23 19 8 7 9 4 5 6 6 7 7 7 5 4 15 16 11 6 3 5 25 34 32 29 25 24 24 15 10 9 9 12 14 12 13 6 8 11 10
19 27 21 20 19 21 12 6 2 2 4 5 11 10 11 5 7 7 8 13 14 12 7 8 9 15 19 17 10 13 17 12 9 10 11 12 14 13 14 9 8 10 11 13
15 15 24 19 20 8 10 9 5 8 5 10 13 9 7 8 11 14 15 15 13 18 20 19 20 22 19 17 14 9 5 11 15 12 8 8 10 9 8 11 9 11 10 11
12 19 13 20 16 10 9 10 8 3 3 2 3 5 7 8 8 9 12 12 25 27 28 25 23 23 19 17 12 13 7 7 4 4 4 6 6 6 5 7 11 10 9 8
6 5 15 15 12 14 14 9 9 3 6 5 0 5 1 5 7 15 6 19 27 29 26 23 18 15 16 16 12 5 8 2 2 5 4 3 4 3 3 5 7 10 14 15
5 3 5 7 4 11 7 10 6 4 4 6 4 3 9 4 7 12 15 16 26 22 19 20 23 20 16 12 11 8 9 4 6 6 5 5 5 5 6 8 11 13 15 18
5 4 4 4 14 15 9 8 7 5 1 3 4 2 5 3 11 24 13 15 24 22 21 22 25 23 19 20 20 17 13 10 8 6 4 6 7 10 12 14 16 18 19 20
7 5 5 9 10 15 9 8 6 8 4 6 5 1 3 7 8 27 23 5 16 27 26 26 25 24 22 19 13 11 7 5 4 3 5 7 10 12 13 14 16 18 20 22
8 4 6 7 2 2 13 10 11 8 4 4 4 9 8 9 10 4 1 4 12 28 29 28 24 20 16 14 10 8 8 5 5 6 7 8 10 11 11 15 18 21 24 27
5 6 6 2 9 7 3 7 10 6 6 5 12 17 12 10 17 11 16 8 30 29 24 21 18 15 12 9 8 7 6 8 9 9 7 8 9 9 13 17 21 24 24 24
8 6 3 3 6 5 3 8 8 11 2 8 10 11 10 20 27 21 16 20 27 23 24 20 16 12 8 5 6 8 9 10 11 10 9 8 10 13 18 21 21 22 24 26
11 5 4 2 5 7 4 3 7 14 13 11 13 9 14 16 15 21 17 19 23 24 21 18 15 9 6 7 8 9 10 12 11 8 9 10 13 15 16 15 18 22 23 21
6 8 3 8 16 5 1 9 9 11 14 17 17 21 21 25 30 31 27 24 24 21 17 14 9 7 6 8 9 10 14 15 14 10 11 13 15 14 12 16 19 19 19 22
5 6 4 5 2 8 13 15 18 16 15 11 25 24 30 31 34 28 24 21 21 17 13 9 6 5 7 10 12 14 16 16 12 11 13 14 11 13 16 17 16 17 22 25
9 6 7 9 5 3 4 17 25 12 12 12 20 15 20 20 11 7 22 17 14 10 7 5 4 7 10 15 16 17 15 12 13 14 13 9 14 15 17 15 15 20 24 29
5 3 4 5 5 2 5 11 17 8 5 19 25 25 27 16 17 22 17 15 9 6 7 8 8 10 13 16 16 17 16 13 11 8 9 10 12 15 13 11 16 21 26 23
3 4 1 1 5 1 9 11 7 10 27 29 29 29 31 28 23 18 13 11 9 11 12 12 12 10 13 17 17 13 11 10 9 9 8 9 11 13 8 12 16 20 21 23
3 3 3 4 7 16 35 28 31 35 33 30 33 27 26 24 19 13 13 11 12 12 12 12 13 14 13 13 13 11 10 10 11 10 8 8 11 5 5 11 17 18 20 25
7 10 8 8 14 17 32 35 36 36 34 30 26 24 21 21 15 15 14 13 13 13 14 14 14 15 15 13 11 10 13 13 12 11 9 9 11 6 3 9 16 17 20 23
3 5 14 19 19 28 28 32 35 34 32 31 25 23 20 18 17 16 16 17 16 17 16 16 17 17 16 15 14 14 14 16 15 10 8 8 9 3 5 10 16 15 15 22
8 10 9 7 12 23 22 28 28 30 29 26 24 22 17 16 15 16 17 16 17 18 19 19 20 20 17 17 18 17 18 19 19 12 8 8 7 1 6 10 10 8 14 17
Wind_Direction
210 211 215 209 225 232 244 245 226 230 239 201 230 222 212 214 225 237 250 253 264 266 253 207 211 217 192 196 197 163 144 176 182 204 215 230 243 225 296 201 212 222 236 231
191 219 213 219 223 227 240 247 253 261 227 205 207 225 223 224 212 214 225 238 251 261 268 223 203 207 206 207 201 187 155 136 170 197 252 228 219 251 225 236 216 218 224 226
205 205 208 219 221 221 228 242 252 247 289 191 178 267 257 259 223 226 224 227 235 249 255 253 215 208 217 216 209 205 179 157 167 191 160 173 194 180 271 234 230 225 227 238
223 225 203 215 225 213 226 225 242 258 266 228 163 241 251 238 242 245 239 225 226 235 247 249 244 215 214 211 221 222 213 208 165 180 185 185 199 202 184 214 223 217 212 246
222 199 223 212 219 226 228 215 214 244 261 205 290 92 256 260 186 175 39 60 16 247 237 235 230 226 203 229 229 211 201 208 203 171 173 191 205 218 223 237 254 233 209 231
224 222 217 227 213 223 232 219 183 201 203 245 228 234 261 242 215 116 79 80 67 98 99 170 192 218 224 219 199 188 197 206 204 205 179 204 213 211 212 239 205 199 228 249
223 226 232 225 219 209 209 131 221 227 211 216 223 226 228 179 133 143 140 127 108 108 70 68 83 157 181 172 191 218 228 209 219 219 221 208 210 228 243 247 243 220 202 206
229 228 217 224 225 180 205 166 158 180 173 228 232 248 272 106 86 108 115 99 102 110 112 105 115 121 140 161 154 129 170 173 206 213 209 182 186 194 193 186 208 209 177 190
214 247 226 227 208 177 191 201 190 160 220 103 192 144 66 89 92 86 81 50 83 82 90 114 121 117 114 124 116 124 86 104 104 151 222 259 257 252 210 189 198 195 209 236
312 300 231 218 193 225 186 162 210 201 181 221 278 78 245 40 7 36 59 83 77 79 84 95 105 111 123 130 138 83 332 302 22 18 37 22 334 316 286 286 276 264 256 272
279 133 306 333 253 193 188 192 189 130 125 170 128 126 359 41 73 54 25 35 99 93 93 98 97 96 105 99 81 101 113 60 75 65 43 36 17 351 331 315 305 299 294 292
190 147 242 287 293 300 193 180 145 125 248 69 103 91 334 49 118 88 54 3 115 123 123 115 114 109 106 109 104 111 101 86 72 65 27 6 341 329 322 314 310 309 305 297
199 168 113 315 294 268 196 190 146 106 96 167 123 213 66 95 101 133 159 175 133 125 120 114 109 103 100 97 97 90 95 72 36 10 348 337 330 325 321 318 308 297 297 299
327 162 145 190 153 230 195 181 148 123 118 142 152 151 161 115 108 122 253 168 160 117 109 101 96 95 94 82 73 77 59 26 341 343 334 329 325 334 317 295 295 299 300 300
237 172 206 193 22 344 27 176 123 119 147 142 165 156 173 158 118 85 46 192 117 113 103 98 91 89 86 78 41 26 359 335 333 337 343 343 337 297 288 291 300 305 311 316
217 165 81 116 39 346 356 14 135 123 66 6 151 128 159 133 125 134 131 94 84 82 84 84 84 80 64 35 2 355 340 326 333 350 352 333 305 300 301 309 318 322 326 329
189 132 124 207 122 338 312 78 9 90 111 196 99 111 137 115 99 97 119 112 90 80 82 80 73 62 32 4 337 320 311 312 325 334 326 306 295 299 308 317 320 324 338 341
230 133 150 136 156 155 217 86 56 65 114 108 104 102 101 101 91 80 81 82 76 77 76 72 62 30 345 313 295 293 299 310 314 309 301 293 301 315 325 318 322 336 337 339
45 90 103 101 73 125 120 147 112 98 53 86 116 111 106 98 85 75 84 82 80 74 67 59 41 0 316 300 303 308 311 314 316 298 302 304 320 331 322 330 342 346 338 335
78 79 111 154 111 98 41 140 126 93 67 50 80 111 127 102 85 73 83 81 75 64 41 15 4 310 305 305 312 316 317 316 309 312 314 338 341 335 336 341 351 344 340 335
26 24 76 57 97 7 339 88 170 69 147 94 84 83 86 81 92 91 88 76 69 47 356 340 329 332 325 320 329 326 320 316 319 328 341 348 342 335 346 2 349 345 346 341
94 77 80 197 91 77 336 30 89 119 84 85 82 81 82 81 80 78 72 51 16 4 355 356 354 347 326 321 322 333 347 343 334 336 338 340 332 340 17 359 355 350 349 1
84 125 148 77 91 80 80 93 96 94 86 85 89 89 91 84 76 64 51 38 24 13 3 353 348 341 345 351 355 356 343 330 325 323 322 327 327 350 19 355 347 356 9 9
58 55 99 85 80 85 87 89 92 96 95 95 94 95 91 85 69 60 53 44 33 22 19 5 7 10 5 7 2 352 343 339 330 322 317 322 337 353 2 10 4 3 16 7
53 96 102 99 99 89 92 99 103 101 99 96 92 88 85 81 75 68 58 49 42 37 30 28 26 22 19 20 15 12 13 6 353 339 326 331 338 30 20 21 8 7 17 3
87 116 118 125 111 114 111 111 109 105 106 104 101 94 88 85 82 70 66 56 51 47 41 40 36 34 35 32 31 21 24 12 4 354 353 345 345 303 5 10 15 52 19 14